Barter Island, AK

7:46 PM AKDT on July 25, 2017 (GMT -0800)
Barter Island LRRS

Weather History for PABA - August, 2013

Change the Weather History Date:

Saturday, August 24, 2013

  Actual Average Record
Temperature  
Mean Temperature 37 °F -  
Max Temperature 37 °F 39 °F 50 °F (2012)
Min Temperature 35 °F 33 °F 33 °F (2006)
Degree Days  
Heating Degree Days 28    
Moisture  
Dew Point 32 °F    
Average Humidity 83    
Maximum Humidity 89    
Minimum Humidity 73    
Precipitation  
Precipitation 0.00 in - - ()
Sea Level Pressure  
Sea Level Pressure 30.04 in    
Wind  
Wind Speed 9 mph (SSW)    
Max Wind Speed 16 mph    
Max Gust Speed -    
Visibility 10 miles    
Events Rain    
Averages and records for this station are not official NWS values.
T = Trace of Precipitation, MM = Missing Value Source: NWS Daily Summary

Daily Weather History Graph

Daily Weather History Graph

Search for Another Location

Airport or City:

Trip Planner

Search our weather history database for the weather conditions in past years. The results will help you decide how hot, cold, wet, or windy it might be!

Date:

Astronomy

Aug. 24, 2013 Rise Set
Actual Time 5:15 AM AKDT 9:54 PM AKDT
Civil Twilight 3:44 AM AKDT 11:22 PM AKDT
Nautical Twilight Sun does not set Sun does not set
Astronomical Twilight Sun does not set Sun does not set
Moon 8:43 PM AKDT (8/24) 12:25 PM AKDT (8/24)
Length of Visible Light 19h 38m
Length of Day
16h 38m
Waning Gibbous, 83% of the Moon is Illuminated
Aug 24
Waning Gibbous
Aug 28
Last Quarter
Sep 5
New
Sep 12
First Quarter
Sep 19
Full

Hourly Weather History & Observations

Time (AKDT) Temp. Windchill Dew Point Humidity Pressure Visibility Wind Dir Wind Speed Gust Speed Precip Events Conditions
12:01 AM 36.0 °F 28.0 °F 32.0 °F 86% 29.99 in 10.0 mi NE 11.5 mph - N/A   Unknown
12:08 AM 35.6 °F 28.6 °F 32.0 °F 87% 29.99 in 10.0 mi NE 9.2 mph - N/A   Overcast
1:01 AM 36.0 °F 28.5 °F 30.0 °F 79% 30.00 in 10.0 mi NE 10.4 mph - N/A   Overcast
2:01 AM 35.1 °F 27.9 °F 30.0 °F 82% 30.01 in 10.0 mi ENE 9.2 mph - N/A   Overcast
3:01 AM 35.1 °F 28.6 °F 30.0 °F 82% 30.01 in 10.0 mi ENE 8.1 mph - N/A   Overcast
4:01 AM 35.1 °F 29.3 °F 30.9 °F 85% 30.02 in 10.0 mi East 6.9 mph - 0.00 in Rain Light Rain
4:59 AM 35.6 °F 30.7 °F 30.2 °F 81% 30.03 in 10.0 mi ESE 5.8 mph - 0.00 in Rain Light Rain
5:01 AM 35.1 °F 31.0 °F 30.9 °F 85% 30.03 in 10.0 mi ESE 4.6 mph - 0.00 in Rain Light Rain
6:01 AM 35.1 °F 30.1 °F 30.9 °F 85% 30.03 in 10.0 mi SE 5.8 mph - 0.00 in   Overcast
7:01 AM 35.1 °F 29.3 °F 30.9 °F 85% 30.03 in 10.0 mi SSE 6.9 mph - N/A   Overcast
8:01 AM 35.1 °F 30.1 °F 32.0 °F 89% 30.04 in 10.0 mi SSE 5.8 mph - N/A   Overcast
9:01 AM 36.0 °F 30.3 °F 30.9 °F 82% 30.04 in 10.0 mi SSE 6.9 mph - N/A   Overcast
10:01 AM 37.0 °F 31.6 °F 32.0 °F 82% 30.05 in 10.0 mi South 6.9 mph - N/A   Overcast
11:01 AM 37.9 °F 32.7 °F 33.1 °F 83% 30.05 in 10.0 mi South 6.9 mph - N/A   Overcast
12:01 PM 39.0 °F 33.4 °F 33.1 °F 79% 30.05 in 10.0 mi SSW 8.1 mph - N/A   Overcast
1:01 PM 39.9 °F 36.7 °F 32.0 °F 73% 30.04 in 10.0 mi SSE 4.6 mph - N/A   Overcast
2:01 PM 39.0 °F 32.8 °F 35.1 °F 86% 30.06 in 10.0 mi West 9.2 mph - N/A   Overcast
3:01 PM 39.9 °F 33.9 °F 34.0 °F 79% 30.06 in 10.0 mi West 9.2 mph - N/A   Mostly Cloudy
4:01 PM 39.0 °F 30.6 °F 34.0 °F 82% 30.06 in 10.0 mi West 15.0 mph - N/A   Scattered Clouds
5:01 PM 37.9 °F 29.6 °F 35.1 °F 89% 30.06 in 10.0 mi WNW 13.8 mph - N/A   Overcast
6:01 PM 37.9 °F 28.9 °F 34.0 °F 86% 30.06 in 10.0 mi NNW 16.1 mph - N/A   Mostly Cloudy
6:33 PM 37.4 °F 30.3 °F 33.8 °F 87% 30.06 in 10.0 mi NNW 10.4 mph - N/A   Overcast
6:53 PM 37.4 °F 29.3 °F 33.8 °F 87% 30.07 in 10.0 mi NNW 12.7 mph - N/A   Overcast
7:01 PM 37.9 °F 30.9 °F 32.0 °F 79% 30.07 in 10.0 mi NW 10.4 mph - N/A   Overcast
8:01 PM 37.9 °F 30.9 °F 30.0 °F 73% 30.06 in 10.0 mi WNW 10.4 mph - N/A   Overcast
9:01 PM 37.9 °F 32.7 °F 33.1 °F 83% 30.07 in 10.0 mi WSW 6.9 mph - N/A   Overcast
10:01 PM 37.0 °F 31.0 °F 32.0 °F 82% 30.06 in 10.0 mi WSW 8.1 mph - N/A   Mostly Cloudy
11:01 PM 37.0 °F 32.4 °F 33.1 °F 86% 30.06 in 10.0 mi SW 5.8 mph - N/A   Overcast